Location: Praha
(50.0830°N, 14.4670°E)
Time: 02:49:54
(UTC+01:00)

ISS - Pass Details

Date: 14 November 2025
Orbit: 414 x 420 km, 51.6° (Epoch: 18 November)

Event Time Altitude Azimuth Distance (km) Brightness Sun altitude
Rises 17:23:59 0° 194° (SSW) 2,340 0.5 -10.5°
Reaches altitude 10° 17:26:58 10° 165° (SSE) 1,482 -1.0 -11.0°
Maximum altitude 17:28:31 13° 137° (SE) 1,328 -1.5 -11.2°
Enters shadow 17:29:37 11° 116° (ESE) 1,410 -1.5 -11.4°
